This is the latest recevied weather packets stored in our database for station/object KD0RII. If no packets are shown the sender has not sent any weather packets the latest 10 day(s).
| Time | Temp. | Humidity | Pressure | Rain* | Wind** | Luminosity | Snow |
|---|---|---|---|---|---|---|---|
| 1777826773 | 24.44° C | 46% | 1014.7 hPa | 0 mm | - | 704 W/m² | - |
| 1777826470 | 23.89° C | 47% | 1014.7 hPa | 0 mm | - | 693 W/m² | - |
| 1777826167 | 23.89° C | 46% | 1014.6 hPa | 0 mm | - | 683 W/m² | - |
| 1777825864 | 23.33° C | 52% | 1014.7 hPa | 0 mm | - | 672 W/m² | - |
| 1777825561 | 23.33° C | 45% | 1014.8 hPa | 0 mm | - | 659 W/m² | - |
| 1777825259 | 23.33° C | 48% | 1014.9 hPa | 0 mm | - | 648 W/m² | - |
| 1777824956 | 23.33° C | 47% | 1015 hPa | 0 mm | - | 636 W/m² | - |
| 1777824651 | 23.89° C | 50% | 1015 hPa | 0 mm | - | 624 W/m² | - |
| 1777824349 | 23.33° C | 48% | 1015.3 hPa | 0 mm | - | 612 W/m² | - |
| 1777824044 | 22.22° C | 48% | 1015 hPa | 0 mm | - | 599 W/m² | - |
| 1777823741 | 22.22° C | 48% | 1015.1 hPa | 0 mm | - | 586 W/m² | - |
| 1777823438 | 22.22° C | 48% | 1015.2 hPa | 0 mm | - | 574 W/m² | - |
| 1777823136 | 22.22° C | 48% | 1015.2 hPa | 0 mm | - | 561 W/m² | - |
| 1777822833 | 21.67° C | 51% | 1015.3 hPa | 0 mm | - | 546 W/m² | - |
| 1777822531 | 21.67° C | 49% | 1015.4 hPa | 0 mm | - | 533 W/m² | - |
| 1777822228 | 21.11° C | 50% | 1015.3 hPa | 0 mm | - | 520 W/m² | - |
| 1777821926 | 20.56° C | 50% | 1015.4 hPa | 0 mm | - | 505 W/m² | - |
| 1777821624 | 20° C | 53% | 1015.5 hPa | 0 mm | - | 489 W/m² | - |
| 1777821322 | 20° C | 51% | 1015.8 hPa | 0 mm | - | 475 W/m² | - |
| 1777821018 | 20° C | 50% | 1015.7 hPa | 0 mm | - | 459 W/m² | - |
| 1777820715 | 20° C | 50% | 1015.7 hPa | 0 mm | - | 444 W/m² | - |
| 1777820410 | 20° C | 51% | 1015.7 hPa | 0 mm | - | 429 W/m² | - |
| 1777820108 | 19.44° C | 52% | 1015.8 hPa | 0 mm | - | 412 W/m² | - |
| 1777819805 | 18.89° C | 53% | 1015.7 hPa | 0 mm | - | 394 W/m² | - |
| 1777819503 | 19.44° C | 51% | 1015.9 hPa | 0 mm | - | 381 W/m² | - |
* Rain latest hour (hover to see other rain measurements)
** Current wind speed in m/s (hover to see current wind gust speed)